Kingston, Jamaica

12:06 PM EST on September 26, 2017 (GMT -0500)
Norman Manley International

Weather History for MKJP - November, 2011

Change the Weather History Date:

Tuesday, November 29, 2011

  Actual Average Record
Temperature  
Mean Temperature 82 °F -  
Max Temperature 88 °F 84 °F 91 °F (2006)
Min Temperature 76 °F 75 °F 71 °F (2015)
Cooling Degree Days 17    
Growing Degree Days 32 (Base 50)    
Moisture  
Dew Point 69 °F    
Average Humidity 64    
Maximum Humidity 74    
Minimum Humidity 49    
Precipitation  
Precipitation 0.00 in - - ()
Sea Level Pressure  
Sea Level Pressure 29.84 in    
Wind  
Wind Speed 6 mph ()    
Max Wind Speed 10 mph    
Max Gust Speed -    
Visibility 5.7 miles    
Events      
Averages and records for this station are not official NWS values.
T = Trace of Precipitation, MM = Missing Value Source: Averaged Metar Reports

Daily Weather History Graph

Daily Weather History Graph

Search for Another Location

Airport or City:

Trip Planner

Search our weather history database for the weather conditions in past years. The results will help you decide how hot, cold, wet, or windy it might be!

Date:

Astronomy

Nov. 29, 2011 Rise Set
Actual Time 6:20 AM EST 5:29 PM EST
Civil Twilight 5:57 AM EST 5:53 PM EST
Nautical Twilight 5:30 AM EST 6:20 PM EST
Astronomical Twilight 5:04 AM EST 6:46 PM EST
Moon 10:19 AM EST (11/29) 10:03 PM EST (11/29)
Length of Visible Light 11h 55m
Length of Day
11h 09m
Waxing Crescent, 24% of the Moon is Illuminated
Nov 29
Waxing Crescent
Dec 2
First Quarter
Dec 10
Full
Dec 17
Last Quarter
Dec 24
New

Hourly Weather History & Observations

Time (EST) Temp. Heat Index Dew Point Humidity Pressure Visibility Wind Dir Wind Speed Gust Speed Precip Events Conditions
12:00 AM 80.6 °F 84.6 °F 71.6 °F 74% 29.83 in 6.2 mi WNW 6.9 mph - N/A   Partly Cloudy
1:00 AM 79 °F - 69 °F 65% 29.84 in 4 mi NW 8.1 mph - -   Scattered Clouds
1:00 AM 78.8 °F - 69.8 °F 74% 29.83 in 6.2 mi NW 8.1 mph - N/A   Partly Cloudy
2:00 AM 78.8 °F - 69.8 °F 74% 29.80 in 6.2 mi North 6.9 mph - N/A   Scattered Clouds
3:00 AM 78.8 °F - 69.8 °F 74% 29.80 in 6.2 mi North 4.6 mph - N/A   Partly Cloudy
4:00 AM 78 °F - 70 °F 69% 29.82 in 4 mi NNW 2.3 mph - -   Scattered Clouds
4:00 AM 78.8 °F - 69.8 °F 74% 29.80 in 6.2 mi NNW 2.3 mph - N/A   Partly Cloudy
5:00 AM 77.0 °F - 68.0 °F 74% 29.80 in 6.2 mi North 8.1 mph - N/A   Partly Cloudy
6:00 AM 77.0 °F - 68.0 °F 74% 29.83 in 6.2 mi North 3.5 mph - N/A   Partly Cloudy
7:00 AM 77 °F - 69 °F 69% 29.86 in 4 mi NNW 9.2 mph - -   Haze
7:00 AM 77.0 °F - 68.0 °F 74% 29.86 in 6.2 mi NNW 9.2 mph - N/A   Partly Cloudy
8:00 AM 78.8 °F - 68.0 °F 69% 29.86 in 6.2 mi NNW 5.8 mph - N/A   Scattered Clouds
9:00 AM 82.4 °F 87.2 °F 71.6 °F 70% 29.89 in 6.2 mi ESE 10.4 mph - N/A   Mostly Cloudy
10:00 AM 86 °F - 71 °F 53% 29.89 in 4 mi SSE 4.6 mph - -   Haze
10:00 AM 86.0 °F 91.8 °F 71.6 °F 62% 29.89 in 6.2 mi SSE 4.6 mph - N/A   Mostly Cloudy
11:00 AM 86.0 °F 90.4 °F 69.8 °F 58% 29.86 in 6.2 mi South 3.5 mph - N/A   Scattered Clouds
12:00 PM 86.0 °F 90.4 °F 69.8 °F 58% 29.83 in 6.2 mi SSW 4.6 mph - N/A   Partly Cloudy
1:00 PM - - - %  in - Calm Calm - -  
1:00 PM 86.0 °F 91.8 °F 71.6 °F 62% 29.80 in 6.2 mi SSE 6.9 mph - N/A   Partly Cloudy
2:00 PM 87.8 °F 92.6 °F 69.8 °F 55% 29.80 in 6.2 mi South 6.9 mph - N/A   Partly Cloudy
3:00 PM 87.8 °F 93.8 °F 71.6 °F 58% 29.80 in 6.2 mi South 5.8 mph - N/A   Partly Cloudy
4:00 PM 87 °F - 71 °F 50% 29.81 in 4 mi SSW 5.8 mph - -   Haze
4:00 PM 86.0 °F 91.8 °F 71.6 °F 62% 29.80 in 6.2 mi SSW 5.8 mph - N/A   Partly Cloudy
5:00 PM 84.2 °F 88.4 °F 69.8 °F 62% 29.80 in 6.2 mi SW 6.9 mph - N/A   Scattered Clouds
6:00 PM 82.4 °F 84.6 °F 66.2 °F 58% 29.80 in 6.2 mi West 9.2 mph - N/A   Partly Cloudy
7:00 PM 80 °F - 68 °F 58% 29.85 in 4 mi NNW 6.9 mph - -   Haze
7:00 PM 80.6 °F 83.2 °F 68.0 °F 65% 29.83 in 6.2 mi NNW 6.9 mph - N/A   Partly Cloudy
8:00 PM 78.8 °F - 68.0 °F 69% 29.86 in 6.2 mi North 9.2 mph - N/A   Partly Cloudy
9:00 PM 80.6 °F 82.3 °F 64.4 °F 58% 29.86 in 6.2 mi NNE 6.9 mph - N/A   Partly Cloudy
10:00 PM 79 °F - 63 °F 49% 29.88 in 4 mi North 4.6 mph - -   Haze
10:00 PM 78.8 °F - 62.6 °F 57% 29.86 in 6.2 mi North 4.6 mph - N/A   Partly Cloudy
11:00 PM 78.8 °F - 62.6 °F 57% 29.86 in 6.2 mi North 5.8 mph - N/A   Partly Cloudy